Time,TemperatureF,DewpointF,PressureIn,WindDirection,WindDirectionDegrees,WindSpeedMPH,WindSpeedGustMPH,Humidity,HourlyPrecipIn,Conditions,Clouds,dailyrainin,SolarRadiationWatts/m^2,SoftwareType,DateUTC
2013-01-14 00:02:00,8.0,-1.0,-100.00,West,275,6.0,11.0,67,0.00,,,0.02,0.000000,,2013-01-14 07:02:00,
2013-01-14 00:12:00,8.0,-1.0,-100.00,West,275,6.0,11.0,67,0.00,,,0.02,0.000000,,2013-01-14 07:12:00,
2013-01-14 00:33:00,8.0,0.0,-100.00,WSW,249,3.0,12.0,68,0.00,,,0.02,0.000000,,2013-01-14 07:33:00,
2013-01-14 00:43:00,8.0,0.0,-100.00,WSW,249,3.0,12.0,68,0.00,,,0.02,0.000000,,2013-01-14 07:43:00,
2013-01-14 00:53:00,8.0,0.0,-100.00,WSW,249,3.0,12.0,68,0.00,,,0.02,0.000000,,2013-01-14 07:53:00,
2013-01-14 01:02:00,8.0,0.0,-100.00,WSW,249,3.0,12.0,68,0.00,,,0.02,0.000000,,2013-01-14 08:02:00,
2013-01-14 01:12:00,8.0,0.0,-100.00,WSW,249,3.0,12.0,68,0.00,,,0.02,0.000000,,2013-01-14 08:12:00,
2013-01-14 01:33:00,9.0,-1.0,-100.00,West,263,8.0,15.0,64,0.00,,,0.02,0.000000,,2013-01-14 08:33:00,
2013-01-14 01:43:00,9.0,-1.0,-100.00,West,263,8.0,15.0,64,0.00,,,0.02,0.000000,,2013-01-14 08:43:00,
2013-01-14 01:53:00,9.0,-1.0,-100.00,West,263,8.0,15.0,64,0.00,,,0.02,0.000000,,2013-01-14 08:53:00,
2013-01-14 02:02:00,9.0,-1.0,-100.00,West,263,8.0,15.0,64,0.00,,,0.02,0.000000,,2013-01-14 09:02:00,
2013-01-14 02:12:00,9.0,-1.0,-100.00,West,263,8.0,15.0,64,0.00,,,0.02,0.000000,,2013-01-14 09:12:00,
2013-01-14 02:34:00,8.0,-1.0,-100.00,West,271,7.0,14.0,66,0.00,,,0.02,0.000000,,2013-01-14 09:34:00,
2013-01-14 02:43:00,8.0,-1.0,-100.00,West,271,7.0,14.0,66,0.00,,,0.02,0.000000,,2013-01-14 09:43:00,
2013-01-14 02:53:00,8.0,-1.0,-100.00,West,271,7.0,14.0,66,0.00,,,0.02,0.000000,,2013-01-14 09:53:00,
2013-01-14 03:02:00,8.0,-1.0,-100.00,West,271,7.0,14.0,66,0.00,,,0.02,0.000000,,2013-01-14 10:02:00,
2013-01-14 03:12:00,8.0,-1.0,-100.00,West,271,7.0,14.0,66,0.00,,,0.02,0.000000,,2013-01-14 10:12:00,
2013-01-14 03:33:00,7.0,-1.0,-100.00,WSW,257,9.0,14.0,68,0.00,,,0.02,0.000000,,2013-01-14 10:33:00,
2013-01-14 03:43:00,7.0,-1.0,-100.00,WSW,257,9.0,14.0,68,0.00,,,0.02,0.000000,,2013-01-14 10:43:00,
2013-01-14 03:53:00,7.0,-1.0,-100.00,WSW,257,9.0,14.0,68,0.00,,,0.02,0.000000,,2013-01-14 10:53:00,
2013-01-14 04:02:00,7.0,-1.0,-100.00,WSW,257,9.0,14.0,68,0.00,,,0.02,0.000000,,2013-01-14 11:02:00,
2013-01-14 04:12:00,7.0,-1.0,-100.00,WSW,257,9.0,14.0,68,0.00,,,0.02,0.000000,,2013-01-14 11:12:00,
2013-01-14 04:43:00,7.0,-3.0,-100.00,West,278,7.0,15.0,64,0.00,,,0.02,0.000000,,2013-01-14 11:43:00,
2013-01-14 04:53:00,7.0,-3.0,-100.00,West,278,7.0,15.0,64,0.00,,,0.02,0.000000,,2013-01-14 11:53:00,
2013-01-14 05:03:00,7.0,-3.0,-100.00,West,278,7.0,15.0,64,0.00,,,0.02,0.000000,,2013-01-14 12:03:00,
2013-01-14 05:12:00,7.0,-3.0,-100.00,West,278,7.0,15.0,64,0.00,,,0.02,0.000000,,2013-01-14 12:12:00,
2013-01-14 05:33:00,8.0,-4.0,-100.00,WNW,287,10.0,19.0,58,0.00,,,0.02,0.000000,,2013-01-14 12:33:00,
2013-01-14 05:43:00,8.0,-4.0,-100.00,WNW,287,10.0,19.0,58,0.00,,,0.02,0.000000,,2013-01-14 12:43:00,
2013-01-14 05:53:00,8.0,-4.0,-100.00,WNW,287,10.0,19.0,58,0.00,,,0.02,0.000000,,2013-01-14 12:53:00,
2013-01-14 06:03:00,8.0,-4.0,-100.00,WNW,287,10.0,19.0,58,0.00,,,0.02,0.000000,,2013-01-14 13:03:00,
2013-01-14 06:12:00,8.0,-4.0,-100.00,WNW,287,10.0,19.0,58,0.00,,,0.02,0.000000,,2013-01-14 13:12:00,
2013-01-14 06:13:00,9.0,-3.0,-100.00,WNW,289,9.0,17.0,58,0.00,,,0.02,0.000000,,2013-01-14 13:13:00,
2013-01-14 06:33:00,9.0,-3.0,-100.00,WNW,289,9.0,17.0,58,0.00,,,0.02,0.000000,,2013-01-14 13:33:00,
2013-01-14 06:43:00,9.0,-3.0,-100.00,WNW,289,9.0,17.0,58,0.00,,,0.02,0.000000,,2013-01-14 13:43:00,
2013-01-14 06:53:00,9.0,-3.0,-100.00,WNW,289,9.0,17.0,58,0.00,,,0.02,0.000000,,2013-01-14 13:53:00,
2013-01-14 07:03:00,9.0,-3.0,-100.00,WNW,289,9.0,17.0,58,0.00,,,0.02,0.000000,,2013-01-14 14:03:00,
2013-01-14 07:33:00,10.0,-3.0,-100.00,WNW,282,8.0,17.0,54,0.00,,,0.02,0.000000,,2013-01-14 14:33:00,
2013-01-14 07:43:00,10.0,-3.0,-100.00,WNW,282,8.0,17.0,54,0.00,,,0.02,0.000000,,2013-01-14 14:43:00,
2013-01-14 07:53:00,10.0,-3.0,-100.00,WNW,282,8.0,17.0,54,0.00,,,0.02,0.000000,,2013-01-14 14:53:00,
2013-01-14 08:03:00,10.0,-3.0,-100.00,WNW,282,8.0,17.0,54,0.00,,,0.02,0.000000,,2013-01-14 15:03:00,
2013-01-14 08:12:00,10.0,-3.0,-100.00,WNW,282,8.0,17.0,54,0.00,,,0.02,0.000000,,2013-01-14 15:12:00,
2013-01-14 08:34:00,12.0,-3.0,-100.00,WNW,282,6.0,17.0,50,0.00,,,0.02,25.000000,,2013-01-14 15:34:00,
2013-01-14 08:43:00,12.0,-3.0,-100.00,WNW,282,6.0,17.0,50,0.00,,,0.02,25.000000,,2013-01-14 15:43:00,
2013-01-14 08:53:00,12.0,-3.0,-100.00,WNW,282,6.0,17.0,50,0.00,,,0.02,25.000000,,2013-01-14 15:53:00,
2013-01-14 09:03:00,12.0,-3.0,-100.00,WNW,282,6.0,17.0,50,0.00,,,0.02,25.000000,,2013-01-14 16:03:00,
2013-01-14 09:12:00,12.0,-3.0,-100.00,WNW,282,6.0,17.0,50,0.00,,,0.02,25.000000,,2013-01-14 16:12:00,
2013-01-14 09:33:00,14.0,-3.0,-100.00,WNW,287,9.0,17.0,46,0.00,,,-99.99,188.000000,,2013-01-14 16:33:00,
2013-01-14 09:43:00,14.0,-3.0,-100.00,WNW,287,9.0,17.0,46,0.00,,,-99.99,188.000000,,2013-01-14 16:43:00,
2013-01-14 09:53:00,14.0,-3.0,-100.00,WNW,287,9.0,17.0,46,0.00,,,-99.99,188.000000,,2013-01-14 16:53:00,
2013-01-14 10:03:00,14.0,-3.0,-100.00,WNW,287,9.0,17.0,46,0.00,,,-99.99,188.000000,,2013-01-14 17:03:00,
2013-01-14 10:12:00,14.0,-3.0,-100.00,WNW,287,9.0,17.0,46,0.00,,,-99.99,188.000000,,2013-01-14 17:12:00,
2013-01-14 10:33:00,17.0,-2.0,-100.00,West,277,10.0,19.0,43,0.00,,,0.02,377.000000,,2013-01-14 17:33:00,
2013-01-14 10:43:00,17.0,-2.0,-100.00,West,277,10.0,19.0,43,0.00,,,0.02,377.000000,,2013-01-14 17:43:00,
2013-01-14 10:54:00,17.0,-2.0,-100.00,West,277,10.0,19.0,43,0.00,,,0.02,377.000000,,2013-01-14 17:54:00,
2013-01-14 11:03:00,17.0,-2.0,-100.00,West,277,10.0,19.0,43,0.00,,,0.02,377.000000,,2013-01-14 18:03:00,
2013-01-14 11:12:00,17.0,-2.0,-100.00,West,277,10.0,19.0,43,0.00,,,0.02,377.000000,,2013-01-14 18:12:00,
2013-01-14 11:33:00,18.0,-1.0,-100.00,WNW,282,11.0,22.0,42,0.00,,,0.02,521.000000,,2013-01-14 18:33:00,
2013-01-14 11:43:00,18.0,-1.0,-100.00,WNW,282,11.0,22.0,42,0.00,,,0.02,521.000000,,2013-01-14 18:43:00,
2013-01-14 11:53:00,18.0,-1.0,-100.00,WNW,282,11.0,22.0,42,0.00,,,0.02,521.000000,,2013-01-14 18:53:00,
2013-01-14 12:03:00,18.0,-1.0,-100.00,WNW,282,11.0,22.0,42,0.00,,,0.02,521.000000,,2013-01-14 19:03:00,
2013-01-14 12:12:00,18.0,-1.0,-100.00,WNW,282,11.0,22.0,42,0.00,,,0.02,521.000000,,2013-01-14 19:12:00,
2013-01-14 12:13:00,20.0,-1.0,-100.00,WNW,287,7.0,20.0,39,0.00,,,0.02,603.000000,,2013-01-14 19:13:00,
2013-01-14 12:43:00,20.0,-1.0,-100.00,WNW,287,7.0,20.0,39,0.00,,,0.02,603.000000,,2013-01-14 19:43:00,
2013-01-14 12:53:00,20.0,-1.0,-100.00,WNW,287,7.0,20.0,39,0.00,,,0.02,603.000000,,2013-01-14 19:53:00,
2013-01-14 13:03:00,20.0,-1.0,-100.00,WNW,287,7.0,20.0,39,0.00,,,0.02,603.000000,,2013-01-14 20:03:00,
2013-01-14 13:33:00,20.0,-1.0,-100.00,West,279,6.0,20.0,38,0.00,,,0.02,618.000000,,2013-01-14 20:33:00,
2013-01-14 13:43:00,20.0,-1.0,-100.00,West,279,6.0,20.0,38,0.00,,,0.02,618.000000,,2013-01-14 20:43:00,
2013-01-14 13:53:00,20.0,-1.0,-100.00,West,279,6.0,20.0,38,0.00,,,0.02,618.000000,,2013-01-14 20:53:00,
2013-01-14 14:03:00,20.0,-1.0,-100.00,West,279,6.0,20.0,38,0.00,,,0.02,618.000000,,2013-01-14 21:03:00,
2013-01-14 14:12:00,20.0,-1.0,-100.00,West,279,6.0,20.0,38,0.00,,,0.02,618.000000,,2013-01-14 21:12:00,
2013-01-14 14:33:00,20.0,-1.0,-100.00,WNW,289,7.0,16.0,39,0.01,,,0.03,559.000000,,2013-01-14 21:33:00,
2013-01-14 14:43:00,20.0,-1.0,-100.00,WNW,289,7.0,16.0,39,0.01,,,0.03,559.000000,,2013-01-14 21:43:00,
2013-01-14 14:53:00,20.0,-1.0,-100.00,WNW,289,7.0,16.0,39,0.01,,,0.03,559.000000,,2013-01-14 21:53:00,
2013-01-14 15:03:00,20.0,-1.0,-100.00,WNW,289,7.0,16.0,39,0.01,,,0.03,559.000000,,2013-01-14 22:03:00,
2013-01-14 15:12:00,20.0,-1.0,-100.00,WNW,289,7.0,16.0,39,0.01,,,0.03,559.000000,,2013-01-14 22:12:00,
2013-01-14 15:33:00,19.0,-3.0,-100.00,West,272,8.0,16.0,37,0.00,,,-99.99,432.000000,,2013-01-14 22:33:00,
2013-01-14 15:43:00,19.0,-3.0,-100.00,West,272,8.0,16.0,37,0.00,,,-99.99,432.000000,,2013-01-14 22:43:00,
2013-01-14 15:53:00,19.0,-3.0,-100.00,West,272,8.0,16.0,37,0.00,,,-99.99,432.000000,,2013-01-14 22:53:00,
2013-01-14 16:03:00,19.0,-3.0,-100.00,West,272,8.0,16.0,37,0.00,,,-99.99,432.000000,,2013-01-14 23:03:00,
2013-01-14 16:12:00,19.0,-3.0,-100.00,West,272,8.0,16.0,37,0.00,,,-99.99,432.000000,,2013-01-14 23:12:00,
2013-01-14 16:33:00,16.0,-2.0,-100.00,SW,227,4.0,12.0,43,0.00,,,0.01,184.000000,,2013-01-14 23:33:00,
2013-01-14 16:43:00,16.0,-2.0,-100.00,SW,227,4.0,12.0,43,0.00,,,0.01,184.000000,,2013-01-14 23:43:00,
2013-01-14 16:53:00,16.0,-2.0,-100.00,SW,227,4.0,12.0,43,0.00,,,0.01,184.000000,,2013-01-14 23:53:00,
2013-01-14 17:03:00,16.0,-2.0,-100.00,SW,227,4.0,12.0,43,0.00,,,0.01,184.000000,,2013-01-15 00:03:00,
2013-01-14 17:12:00,16.0,-2.0,-100.00,SW,227,4.0,12.0,43,0.00,,,0.01,184.000000,,2013-01-15 00:12:00,
2013-01-14 17:33:00,11.0,-3.0,-100.00,SSW,207,6.0,9.0,53,0.00,,,0.01,8.000000,,2013-01-15 00:33:00,
2013-01-14 17:43:00,11.0,-3.0,-100.00,SSW,207,6.0,9.0,53,0.00,,,0.01,8.000000,,2013-01-15 00:43:00,
2013-01-14 17:53:00,11.0,-3.0,-100.00,SSW,207,6.0,9.0,53,0.00,,,0.01,8.000000,,2013-01-15 00:53:00,
2013-01-14 18:02:00,11.0,-3.0,-100.00,SSW,207,6.0,9.0,53,0.00,,,0.01,8.000000,,2013-01-15 01:02:00,
2013-01-14 18:12:00,11.0,-3.0,-100.00,SSW,207,6.0,9.0,53,0.00,,,0.01,8.000000,,2013-01-15 01:12:00,
2013-01-14 19:33:00,9.0,-3.0,-100.00,West,277,7.0,13.0,57,-99.99,,,0.01,0.000000,,2013-01-15 02:33:00,
2013-01-14 19:43:00,9.0,-3.0,-100.00,West,277,7.0,13.0,57,-99.99,,,0.01,0.000000,,2013-01-15 02:43:00,
2013-01-14 19:53:00,9.0,-3.0,-100.00,West,277,7.0,13.0,57,-99.99,,,0.01,0.000000,,2013-01-15 02:53:00,
2013-01-14 20:02:00,9.0,-3.0,-100.00,West,277,7.0,13.0,57,-99.99,,,0.01,0.000000,,2013-01-15 03:02:00,
2013-01-14 20:12:00,9.0,-3.0,-100.00,West,277,7.0,13.0,57,-99.99,,,0.01,0.000000,,2013-01-15 03:12:00,
2013-01-14 20:33:00,9.0,-3.0,-100.00,West,272,8.0,15.0,56,0.00,,,0.01,0.000000,,2013-01-15 03:33:00,
2013-01-14 20:43:00,9.0,-3.0,-100.00,West,272,8.0,15.0,56,0.00,,,0.01,0.000000,,2013-01-15 03:43:00,
2013-01-14 20:53:00,9.0,-3.0,-100.00,West,272,8.0,15.0,56,0.00,,,0.01,0.000000,,2013-01-15 03:53:00,
2013-01-14 21:02:00,9.0,-3.0,-100.00,West,272,8.0,15.0,56,0.00,,,0.01,0.000000,,2013-01-15 04:02:00,
2013-01-14 21:12:00,9.0,-3.0,-100.00,West,272,8.0,15.0,56,0.00,,,0.01,0.000000,,2013-01-15 04:12:00,
2013-01-14 21:33:00,9.0,-5.0,-100.00,West,270,8.0,17.0,53,0.00,,,0.01,0.000000,,2013-01-15 04:33:00,
2013-01-14 21:42:00,9.0,-5.0,-100.00,West,270,8.0,17.0,53,0.00,,,0.01,0.000000,,2013-01-15 04:42:00,
2013-01-14 21:52:00,9.0,-5.0,-100.00,West,270,8.0,17.0,53,0.00,,,0.01,0.000000,,2013-01-15 04:52:00,
2013-01-14 22:03:00,9.0,-5.0,-100.00,West,270,8.0,17.0,53,0.00,,,0.01,0.000000,,2013-01-15 05:03:00,
2013-01-14 22:12:00,9.0,-5.0,-100.00,West,270,8.0,17.0,53,0.00,,,0.01,0.000000,,2013-01-15 05:12:00,
2013-01-14 22:33:00,9.0,-6.0,-100.00,West,276,9.0,22.0,50,0.00,,,0.01,0.000000,,2013-01-15 05:33:00,
2013-01-14 22:42:00,9.0,-6.0,-100.00,West,276,9.0,22.0,50,0.00,,,0.01,0.000000,,2013-01-15 05:42:00,
2013-01-14 22:53:00,9.0,-6.0,-100.00,West,276,9.0,22.0,50,0.00,,,0.01,0.000000,,2013-01-15 05:53:00,
2013-01-14 23:02:00,9.0,-6.0,-100.00,West,276,9.0,22.0,50,0.00,,,0.01,0.000000,,2013-01-15 06:02:00,
2013-01-14 23:12:00,9.0,-6.0,-100.00,West,276,9.0,22.0,50,0.00,,,0.01,0.000000,,2013-01-15 06:12:00,
2013-01-14 23:33:00,9.0,-7.0,-100.00,West,277,11.0,25.0,47,0.00,,,0.01,0.000000,,2013-01-15 06:33:00,
2013-01-14 23:43:00,9.0,-7.0,-100.00,West,277,11.0,25.0,47,0.00,,,0.01,0.000000,,2013-01-15 06:43:00,
2013-01-14 23:53:00,9.0,-7.0,-100.00,West,277,11.0,25.0,47,0.00,,,0.01,0.000000,,2013-01-15 06:53:00,